Location: Christchurch
(43.5330°S, 172.6330°E)
Time: 10:20:48
(UTC+13:00)

Cosmos 2219 Rocket - Pass Details

Date: 24 January 2019
Orbit: 829 x 845 km, 71.0° (Epoch: 18 February)

Event Time Altitude Azimuth Distance (km) Brightness Sun altitude
Exits shadow 23:36:26 43° 38° (NE) 1,186 2.5 -21.0°
Maximum altitude 23:37:33 48° 72° (ENE) 1,097 2.4 -21.1°
Drops below altitude 10° 23:43:02 10° 145° (SE) 2,498 4.9 -21.6°
Sets 23:45:34 0° 150° (SSE) 3,441 5.8 -21.8°
